Weather History for Sigonella, Italy

Change the Weather History Date:

Monday, February 17, 2014

  Actual Average Record
Temperature  
Mean Temperature 61 °F -  
Max Temperature 78 °F 63 °F 78 °F (2014)
Min Temperature 44 °F 43 °F 32 °F (2008)
Degree Days  
Heating Degree Days 4    
Growing Degree Days 11 (Base 50)    
Moisture  
Dew Point 48 °F    
Average Humidity 74    
Maximum Humidity 100    
Minimum Humidity 19    
Precipitation  
Precipitation 0.00 in 0.05 in - ()
Sea Level Pressure  
Sea Level Pressure 30.15 in    
Wind  
Wind Speed 7 mph ()    
Max Wind Speed 9 mph    
Max Gust Speed -    
Visibility 7.1 miles    
Events      
Averages and records for this station are not official NWS values.
T = Trace of Precipitation, MM = Missing Value Source: Averaged Metar Reports

Daily Weather History Graph

Daily Weather History Graph

Search for Another Location

Airport:

Trip Planner

Search our weather history database for the weather conditions in past years. The results will help you decide how hot, cold, wet, or windy it might be!

Date:

Astronomy

Feb. 17, 2014 Rise Set
Actual Time 6:47 AM CET 5:41 PM CET
Civil Twilight 6:20 AM CET 6:08 PM CET
Nautical Twilight 5:50 AM CET 6:38 PM CET
Astronomical Twilight 5:20 AM CET 7:09 PM CET
Moon 8:15 PM CET (2/17) 7:42 AM CET (2/17)
Length of Visible Light 11h 47m
Length of Day
10h 54m
Waning Gibbous, 94% of the Moon is Illuminated
Feb 17
Waning Gibbous
Feb 22
Last Quarter
Mar 1
New
Mar 8
First Quarter
Mar 16
Full

Hourly Weather History & Observations

Time (CET) Temp. Windchill Dew Point Humidity Pressure Visibility Wind Dir Wind Speed Gust Speed Precip Events Conditions
12:55 AM 51.8 °F - 48.2 °F 88% 30.12 in - NW 9.2 mph - N/A   Clear
1:00 AM 51 °F - 47 °F 83% 30.14 in 12 mi NW 9.2 mph - -  
1:55 AM 51.8 °F - 46.4 °F 82% 30.12 in - NW 9.2 mph - N/A   Clear
2:55 AM 51.8 °F - 46.4 °F 82% 30.12 in - NW 9.2 mph - N/A   Clear
3:55 AM 50.0 °F - 46.4 °F 87% 30.12 in - West 6.9 mph - N/A   Clear
4:00 AM 50 °F - 46 °F 82% 30.14 in 10 mi West 6.9 mph - -  
4:55 AM 46.4 °F 42.9 °F 44.6 °F 93% 30.12 in - WNW 6.9 mph - N/A   Clear
5:55 AM 46.4 °F 44.3 °F 44.6 °F 93% 30.12 in - WNW 4.6 mph - N/A   Clear
6:55 AM 46.4 °F 41.9 °F 44.6 °F 93% 30.15 in - WNW 9.2 mph - N/A   Clear
7:00 AM 46 °F - 45 °F 93% 30.16 in 10 mi WNW 9.2 mph - -  
7:55 AM 50.0 °F - 44.6 °F 82% 30.18 in - NW 9.2 mph - N/A   Clear
8:55 AM 53.6 °F - 46.4 °F 77% 30.18 in - NW 3.5 mph - N/A   Clear
9:55 AM 60.8 °F - 46.4 °F 59% 30.18 in - WNW 6.9 mph - N/A   Clear
10:00 AM 61 °F - 47 °F 50% 30.20 in 6 mi WNW 6.9 mph - -  
10:55 AM 68.0 °F - 50.0 °F 52% 30.18 in - WNW 9.2 mph - N/A   Clear
11:55 AM 73.4 °F - 50.0 °F 44% 30.18 in - NW 5.8 mph - N/A   Clear
12:55 PM 77.0 °F - 46.4 °F 34% 30.15 in - West 9.2 mph - N/A   Clear
1:00 PM 76 °F - 46 °F 24% 30.16 in 6 mi West 9.2 mph - -  
1:55 PM 75.2 °F - 42.8 °F 31% 30.12 in - WNW 9.2 mph - N/A   Clear
2:55 PM 77.0 °F - 42.8 °F 29% 30.12 in - WNW 9.2 mph - N/A   Clear
3:55 PM 77.0 °F - 42.8 °F 29% 30.12 in - West 5.8 mph - N/A   Clear
4:00 PM 77 °F - 42 °F 19% 30.14 in 6 mi West 5.8 mph - -  
4:55 PM 68.0 °F - 51.8 °F 56% 30.12 in - East 6.9 mph - N/A   Clear
5:55 PM 59.0 °F - 57.2 °F 94% 30.12 in - East 5.8 mph - N/A   Clear
6:55 PM 53.6 °F - 53.6 °F 100% 30.15 in - SE 4.6 mph - N/A   Clear
7:00 PM 54 °F - 54 °F 100% 30.17 in 6 mi SE 4.6 mph - -  
7:55 PM 53.6 °F - 53.6 °F 100% 30.15 in - South 5.8 mph - N/A   Clear
8:55 PM 53.6 °F - 53.6 °F 100% 30.18 in - North 1.2 mph - N/A   Clear
9:55 PM 50.0 °F - 50.0 °F 100% 30.18 in - WNW 3.5 mph - N/A   Clear
10:00 PM 51 °F - 51 °F 99% 30.21 in 6 mi WNW 3.5 mph - -  
10:55 PM 50.0 °F - 50.0 °F 100% 30.18 in - West 1.2 mph - N/A   Clear
11:55 PM 50.0 °F - 50.0 °F 100% 30.18 in 1.6 mi WSW 2.3 mph - N/A   Mist